Probability
0 0 0 0 0 0 0 0 0 0 0 0 0 0 0 0 0 0 0 0 97 100 100 100 100 100 100 100 100 94 87 81 71 52 29 23 13 13 10 6 6 35 55
0 0 0 0 0 0 0 0 0 0 0 0 0 0 0 0 0 0 0 0 0 100 100 100 100 100 97 97 90 87 90 84 84 77 61 48 32 13 6 13 10 26 32
0 0 0 0 0 0 0 0 0 0 0 0 0 0 0 0 0 0 0 0 0 0 100 100 100 100 100 97 94 71 71 71 65 65 58 42 39 19 19 23 16 32 39
0 0 0 0 0 0 0 0 0 0 0 0 0 0 0 0 0 0 0 0 0 0 0 87 100 100 100 97 97 84 61 61 42 26 23 23 39 35 19 39 35 45 42
0 0 0 0 0 0 0 0 0 0 0 0 0 0 0 0 0 0 0 0 0 0 0 0 29 100 100 100 100 94 84 45 23 10 10 13 13 16 16 26 45 48 52
0 0 0 0 0 0 0 0 0 0 0 0 0 0 0 0 0 0 0 0 0 0 0 0 0 0 23 100 97 84 77 58 16 16 13 3 3 3 3 10 45 45 52
0 0 0 0 0 0 0 0 0 0 0 0 0 0 0 0 0 0 0 0 0 0 0 0 0 0 0 3 26 39 23 29 10 10 6 0 0 0 0 3 10 35 35
0 0 0 0 0 0 0 0 0 0 0 0 0 0 0 0 0 0 0 0 0 0 0 0 0 0 0 0 0 0 3 0 0 3 3 3 0 0 0 0 0 10 13
0 0 0 0 0 0 0 0 0 0 0 0 0 0 0 0 0 0 0 0 0 0 0 0 0 0 0 0 0 0 0 0 0 0 0 0 0 0 0 0 0 3 13
0 0 0 0 0 0 0 0 0 0 0 0 0 0 0 0 0 0 0 0 0 0 0 0 0 0 0 0 0 0 0 0 0 0 0 0 0 0 0 0 0 0 13
0 0 0 0 0 0 0 0 0 0 0 0 0 0 0 0 0 0 0 0 0 0 0 0 0 0 0 0 0 0 0 0 0 0 0 0 0 0 0 0 0 0 0
0 0 0 0 0 0 0 0 0 0 0 0 0 0 0 0 0 0 0 0 0 0 0 0 0 0 0 0 0 0 0 0 0 0 0 0 0 0 0 0 0 0 0
0 0 0 0 0 0 0 0 0 0 0 0 0 0 0 0 0 0 0 0 0 0 0 0 0 0 0 0 0 0 0 0 0 0 0 0 0 0 0 0 0 0 0
0 0 0 0 0 0 0 0 0 0 0 0 0 0 0 0 0 0 0 0 0 0 0 0 0 0 0 0 0 0 0 0 0 0 0 0 0 0 0 0 0 0 0
0 0 0 0 0 0 0 0 0 0 0 0 0 0 0 0 0 0 0 0 0 0 0 0 0 0 0 0 0 0 0 0 0 0 0 0 0 0 0 0 0 0 0
0 0 0 0 0 0 0 0 0 0 0 0 0 0 0 0 0 0 0 0 0 0 0 0 0 0 0 0 0 0 0 0 0 0 0 0 0 0 0 0 0 0 0
0 0 0 0 0 0 0 0 0 0 0 0 0 0 0 0 0 0 0 0 0 0 0 0 0 0 0 0 0 0 0 0 0 0 0 0 0 0 0 0 0 0 0
0 0 0 0 0 0 0 0 0 0 0 0 0 0 0 0 0 0 0 0 0 0 0 0 0 0 0 0 0 0 0 0 0 0 0 0 0 0 0 0 0 0 0
0 0 0 0 0 0 0 0 0 0 0 0 0 0 0 0 0 0 0 0 0 0 0 0 0 0 0 0 0 0 0 0 0 0 0 0 0 0 0 0 0 0 0
0 0 0 0 0 0 0 0 0 0 0 0 0 0 0 0 0 0 0 0 0 0 0 0 0 0 0 0 0 0 0 0 0 0 0 0 0 0 0 0 0 0 0
0 0 0 0 0 0 0 0 0 0 0 0 0 0 0 0 0 0 0 0 0 0 0 0 0 0 0 0 0 0 0 0 0 0 0 0 0 0 0 0 0 0 0
0 0 0 0 0 0 0 0 0 0 0 0 0 0 0 0 0 0 0 0 0 0 0 0 0 0 0 0 0 0 0 0 0 0 0 0 0 0 0 0 0 0 0
0 0 0 0 0 0 0 0 0 0 0 0 0 0 0 0 0 0 0 0 0 0 0 0 0 0 0 0 0 0 0 0 0 0 0 0 0 0 0 0 0 0 0
0 0 0 0 0 0 0 0 0 0 0 0 0 0 0 0 0 0 0 0 0 0 0 0 0 0 0 0 0 0 0 0 0 0 0 0 0 0 0 0 0 0 0
0 0 0 0 0 0 0 0 0 0 0 0 0 0 0 0 0 0 0 0 0 0 0 0 0 0 0 0 0 0 0 0 0 0 0 0 0 0 0 0 0 0 0
0 0 0 0 0 0 0 0 0 0 0 0 0 0 0 0 0 0 0 0 0 0 0 0 0 0 0 0 0 0 0 0 0 0 0 0 0 0 0 0 0 0 0
Height
5768 5768 5768 5768 5769 5769 5770 5771 5772 5773 5775 5777 5779 5781 5784 5785 5787 5789 5791 5793 5795 5797 5798 5800 5802 5804 5806 5808 5809 5811 5813 5815 5816 5818 5820 5822 5824 5826 5828 5830 5832 5834 5835
5758 5758 5758 5759 5759 5760 5761 5762 5763 5764 5765 5767 5769 5771 5774 5776 5778 5779 5781 5783 5785 5788 5790 5792 5794 5796 5798 5800 5802 5804 5805 5807 5809 5811 5813 5815 5817 5819 5821 5823 5826 5828 5830
5746 5746 5747 5747 5748 5749 5750 5751 5752 5754 5755 5757 5758 5761 5763 5765 5767 5769 5771 5773 5775 5778 5780 5782 5784 5786 5789 5791 5793 5795 5797 5799 5801 5803 5805 5807 5809 5812 5814 5816 5819 5821 5823
5732 5732 5733 5734 5735 5736 5737 5738 5740 5742 5743 5745 5747 5748 5751 5753 5756 5758 5761 5763 5765 5768 5770 5772 5774 5776 5778 5781 5783 5785 5787 5789 5791 5794 5796 5799 5801 5803 5806 5808 5811 5813 5816
5716 5717 5718 5719 5720 5721 5722 5724 5726 5728 5730 5732 5734 5735 5737 5740 5743 5746 5749 5751 5753 5756 5759 5761 5763 5765 5768 5770 5772 5775 5777 5779 5781 5783 5786 5789 5791 5794 5797 5799 5802 5805 5808
5699 5699 5700 5701 5702 5704 5706 5708 5710 5712 5714 5716 5719 5721 5723 5726 5729 5732 5735 5738 5741 5744 5747 5750 5752 5754 5757 5759 5761 5763 5766 5768 5770 5773 5775 5778 5781 5784 5786 5789 5792 5795 5799
5681 5681 5682 5683 5684 5685 5688 5690 5692 5695 5697 5700 5702 5705 5708 5711 5714 5717 5720 5723 5726 5730 5733 5736 5739 5742 5745 5747 5749 5751 5754 5756 5759 5762 5765 5767 5770 5773 5776 5779 5782 5785 5788
5662 5662 5663 5664 5664 5666 5668 5670 5673 5676 5679 5682 5685 5687 5691 5694 5697 5701 5704 5707 5711 5714 5718 5722 5725 5729 5732 5735 5737 5739 5741 5744 5747 5750 5754 5756 5759 5762 5765 5768 5771 5774 5777
5641 5640 5641 5643 5644 5646 5648 5650 5653 5657 5660 5663 5666 5669 5673 5677 5680 5684 5687 5691 5695 5698 5702 5706 5710 5714 5718 5721 5724 5726 5728 5731 5734 5737 5742 5745 5748 5751 5754 5757 5760 5763 5766
5615 5615 5616 5618 5621 5623 5626 5628 5631 5635 5639 5643 5647 5650 5654 5658 5661 5666 5670 5674 5678 5682 5686 5690 5695 5699 5703 5707 5710 5712 5715 5718 5721 5725 5729 5733 5736 5740 5743 5746 5749 5752 5755
5587 5588 5589 5591 5594 5598 5601 5604 5607 5611 5616 5621 5625 5630 5634 5638 5642 5646 5651 5656 5660 5665 5669 5674 5679 5683 5688 5692 5695 5699 5702 5705 5708 5712 5716 5720 5724 5728 5731 5735 5738 5741 5744
5558 5558 5559 5562 5566 5570 5574 5578 5582 5586 5591 5596 5602 5607 5613 5618 5623 5627 5633 5637 5642 5647 5652 5657 5662 5667 5672 5676 5681 5685 5688 5692 5695 5699 5703 5707 5711 5715 5719 5723 5726 5729 5732
5530 5530 5530 5534 5539 5544 5548 5552 5557 5561 5566 5572 5578 5584 5590 5596 5602 5607 5613 5618 5623 5629 5634 5639 5645 5650 5655 5660 5665 5669 5674 5678 5681 5685 5689 5693 5697 5702 5706 5709 5713 5717 5720
5506 5505 5506 5510 5515 5521 5526 5530 5534 5539 5544 5549 5555 5561 5568 5574 5580 5586 5592 5598 5604 5610 5616 5621 5627 5632 5637 5642 5648 5652 5657 5661 5665 5670 5674 5678 5683 5687 5691 5695 5699 5703 5707
5483 5482 5483 5488 5495 5502 5507 5512 5516 5520 5525 5530 5536 5542 5548 5554 5560 5566 5573 5579 5586 5592 5599 5604 5609 5615 5619 5624 5630 5635 5640 5644 5649 5654 5658 5663 5667 5672 5676 5680 5685 5689 5693
5466 5463 5463 5468 5475 5483 5489 5495 5500 5504 5508 5513 5519 5525 5531 5537 5543 5550 5556 5562 5568 5575 5581 5587 5592 5598 5603 5608 5612 5617 5622 5627 5632 5637 5642 5647 5652 5657 5661 5666 5670 5674 5678
5455 5451 5450 5452 5459 5466 5473 5479 5485 5489 5494 5499 5505 5511 5517 5523 5529 5535 5541 5547 5553 5559 5566 5570 5575 5581 5587 5592 5597 5601 5606 5611 5616 5621 5626 5631 5637 5642 5646 5651 5655 5659 5663
5446 5442 5440 5442 5446 5452 5458 5464 5470 5475 5480 5486 5492 5498 5504 5510 5516 5522 5527 5533 5539 5545 5551 5556 5560 5565 5571 5576 5581 5586 5590 5595 5600 5604 5610 5616 5621 5626 5631 5636 5640 5644 5648
5439 5435 5434 5434 5436 5440 5445 5450 5456 5461 5467 5473 5479 5485 5491 5497 5503 5508 5513 5519 5524 5530 5535 5541 5545 5548 5554 5559 5564 5570 5575 5580 5584 5589 5594 5600 5606 5611 5616 5621 5625 5629 5634
5434 5430 5428 5427 5428 5431 5435 5439 5444 5449 5455 5461 5466 5472 5477 5483 5489 5494 5499 5505 5510 5515 5521 5526 5530 5534 5539 5543 5548 5554 5559 5564 5568 5573 5579 5585 5590 5596 5601 5606 5610 5615 5619
5428 5424 5422 5421 5422 5424 5427 5430 5434 5439 5444 5449 5455 5459 5464 5470 5475 5481 5486 5491 5497 5502 5507 5512 5516 5520 5524 5528 5533 5538 5542 5547 5552 5557 5563 5570 5576 5581 5585 5590 5594 5599 5605
5422 5419 5417 5416 5416 5417 5419 5422 5425 5430 5434 5439 5444 5448 5453 5458 5463 5468 5474 5479 5484 5489 5494 5498 5502 5506 5510 5514 5518 5522 5526 5531 5537 5544 5548 5554 5560 5566 5570 5575 5579 5585 5591
5416 5413 5411 5410 5409 5410 5411 5414 5417 5420 5424 5429 5433 5438 5442 5447 5452 5457 5462 5467 5471 5476 5480 5484 5487 5491 5495 5499 5503 5507 5511 5516 5522 5528 5534 5540 5546 5551 5555 5560 5566 5572 5577
5408 5406 5404 5403 5403 5403 5404 5405 5408 5411 5414 5418 5422 5427 5431 5436 5440 5445 5450 5455 5459 5463 5467 5470 5473 5476 5480 5484 5488 5492 5496 5501 5507 5513 5520 5526 5532 5537 5542 5547 5553 5558 5563
5399 5397 5396 5395 5395 5395 5396 5397 5399 5402 5404 5408 5411 5415 5420 5425 5429 5434 5439 5443 5447 5450 5452 5456 5459 5462 5465 5469 5473 5478 5482 5487 5493 5499 5506 5513 5519 5524 5529 5535 5540 5545 5551
5388 5387 5386 5386 5386 5386 5387 5388 5390 5392 5395 5398 5401 5404 5409 5413 5417 5421 5426 5430 5433 5436 5439 5442 5445 5448 5452 5456 5460 5464 5469 5474 5480 5487 5494 5501 5507 5512 5518 5523 5528 5533 5539
Wind_Speed
40 40 39 38 38 37 37 37 37 37 37 37 36 36 35 36 36 36 36 37 37 37 37 36 36 35 34 34 34 33 32 31 30 29 28 28 27 26 26 25 25 26 25
42 42 42 42 42 41 41 40 40 40 40 40 39 39 38 38 38 39 40 41 41 41 42 42 41 41 40 40 40 39 39 37 36 35 34 33 32 31 30 29 28 28 28
45 46 46 46 46 46 45 45 45 45 44 44 44 43 43 42 42 41 42 42 42 42 42 43 43 43 44 44 44 45 45 44 43 41 40 38 37 36 34 33 32 31 31
51 51 51 51 52 52 51 51 50 50 49 49 49 49 48 48 47 46 45 45 44 43 42 43 44 43 43 44 45 46 47 48 48 47 46 44 42 41 39 38 36 35 34
57 57 57 57 57 57 57 57 56 56 55 55 54 54 54 53 52 51 51 50 49 48 47 46 46 46 45 44 44 45 46 48 49 49 49 47 47 45 44 43 41 39 37
62 62 62 62 62 61 61 61 62 61 61 60 60 59 59 59 58 57 56 56 55 53 52 51 50 49 49 48 48 48 48 48 48 49 49 48 48 48 47 46 45 43 42
65 65 65 65 65 65 65 65 65 65 65 65 65 64 64 64 63 62 61 60 59 58 57 56 54 53 52 51 51 50 50 50 50 50 50 50 49 49 48 48 47 46 45
70 70 69 69 69 69 68 68 67 66 67 67 67 68 68 68 67 66 65 64 64 63 61 60 58 56 54 53 53 52 52 52 52 52 52 52 51 50 50 49 48 48 47
76 76 75 75 74 74 73 73 72 70 69 68 68 68 69 69 69 68 68 67 66 65 64 62 60 58 55 53 53 53 53 53 53 53 52 52 52 51 51 50 50 50 49
79 79 80 80 80 79 79 79 78 76 74 72 71 70 70 70 69 68 68 67 67 66 65 63 61 59 57 54 53 52 53 53 53 53 52 52 52 52 52 51 51 51 51
78 79 80 81 82 82 82 82 82 81 79 77 75 74 72 71 71 69 67 66 66 65 64 63 61 58 57 56 55 53 52 53 53 53 53 52 52 53 53 52 53 53 54
74 75 78 80 81 82 83 83 83 83 82 80 79 77 76 75 73 71 69 67 66 66 65 64 63 61 59 58 58 57 56 54 55 55 54 53 53 54 54 54 54 55 56
68 69 71 73 74 75 75 77 79 79 79 79 79 78 77 76 75 73 70 69 68 67 67 66 65 64 63 63 62 61 61 60 60 59 58 58 57 57 56 56 57 57 58
63 65 66 66 65 64 63 64 67 69 70 72 72 72 74 74 73 72 70 69 68 68 67 67 66 66 66 66 66 66 66 66 65 65 64 63 61 60 59 59 59 59 59
51 55 59 62 60 58 56 56 58 60 62 63 63 63 65 67 68 69 69 69 68 67 67 66 66 66 65 65 66 67 67 68 67 66 65 64 63 61 60 59 59 59 60
41 42 47 53 55 54 53 52 51 51 53 53 54 55 59 61 62 64 65 66 66 66 65 65 65 64 64 65 65 66 66 66 66 65 65 64 62 60 59 59 59 59 60
35 34 36 42 47 49 50 51 51 48 48 49 50 51 53 55 57 59 60 62 63 64 63 64 64 63 63 63 63 63 64 64 63 63 62 62 60 59 58 58 58 58 59
31 29 28 32 39 45 47 50 49 48 48 48 48 49 51 52 55 58 59 60 61 62 62 63 63 62 62 62 62 62 63 62 62 61 60 60 59 58 57 57 57 58 58
27 25 25 27 32 39 43 47 50 48 47 47 47 47 49 52 54 57 58 59 59 59 59 59 60 61 61 60 60 61 61 61 61 60 60 59 59 59 58 58 57 58 58
23 22 22 25 29 33 38 41 46 46 45 45 45 45 48 51 53 56 57 57 56 55 56 56 56 57 57 58 58 58 59 60 60 60 60 60 60 59 59 58 58 58 58
22 20 20 22 26 29 33 36 39 42 42 42 42 42 43 46 48 50 51 51 51 51 52 53 54 55 56 57 58 58 58 59 59 60 60 60 60 59 59 59 59 58 56
22 20 19 21 24 28 30 32 34 37 38 40 40 41 42 43 45 46 46 47 48 48 49 51 53 55 56 57 58 58 59 59 60 59 60 60 59 58 58 57 57 55 54
22 20 20 21 23 26 29 31 32 34 35 38 39 41 42 42 43 44 45 45 45 46 48 50 51 52 54 55 56 57 58 58 58 57 57 57 56 56 56 55 54 53 53
24 22 22 22 23 25 27 30 32 33 34 36 38 40 41 42 43 44 44 44 45 47 48 49 50 50 51 52 53 55 57 57 56 55 54 52 51 51 51 51 50 50 50
27 26 25 24 25 26 28 30 32 33 35 36 38 40 42 43 44 44 44 44 45 46 47 48 49 50 51 51 51 52 53 54 54 53 52 50 49 49 49 48 48 48 48
30 29 28 28 28 28 29 31 33 34 36 38 39 40 42 43 44 44 43 44 44 45 45 46 46 47 48 48 48 49 49 50 50 50 49 48 47 47 46 46 46 46 47
Wind_Direction
258 257 255 253 252 251 250 251 251 251 251 251 251 251 251 251 252 252 251 251 251 252 253 253 253 252 251 251 252 252 253 254 255 255 256 257 259 259 259 257 256 255 255
259 259 258 257 256 255 254 253 253 253 253 253 253 253 252 252 252 253 254 254 253 253 254 254 255 254 254 253 254 255 255 256 256 257 257 257 258 260 261 261 261 259 258
260 259 259 259 258 257 256 255 255 255 255 255 255 254 254 253 253 254 255 256 256 256 255 256 255 255 255 254 255 255 256 257 257 257 257 257 257 258 259 261 262 262 261
262 260 259 259 258 258 257 257 256 256 256 256 256 256 256 255 255 254 255 256 257 257 257 256 256 256 255 254 254 254 255 257 257 258 258 257 257 258 258 259 260 261 262
264 262 261 259 258 257 257 257 257 256 256 256 256 256 256 256 256 255 255 256 256 256 256 256 256 256 256 255 254 254 254 255 256 257 257 257 257 257 258 258 259 260 261
265 264 263 262 260 258 257 257 257 257 256 255 255 255 255 256 256 256 255 255 256 256 256 256 256 256 256 255 255 254 253 253 253 255 256 256 256 256 257 258 259 259 260
266 266 265 263 262 260 259 258 257 256 256 255 255 255 254 254 255 255 255 255 256 256 256 256 256 255 254 255 255 254 253 252 251 251 252 254 254 255 256 257 258 259 259
268 267 265 264 263 262 261 259 258 257 257 256 256 255 254 254 254 254 254 255 255 256 256 256 256 255 254 254 254 254 254 253 251 250 250 251 252 253 255 256 257 258 259
269 268 266 265 263 262 261 260 259 257 257 256 256 255 255 254 254 253 253 254 254 254 254 255 255 254 254 253 252 252 253 253 252 251 250 250 251 252 253 255 256 258 259
270 268 267 266 264 263 262 261 260 258 257 256 255 255 254 253 252 252 252 252 252 252 252 252 252 252 251 250 250 250 250 250 251 251 250 249 250 250 251 253 254 256 257
269 267 265 264 263 261 261 260 259 258 256 255 253 252 252 251 251 250 250 250 250 250 250 250 249 248 247 246 246 246 247 248 249 249 248 248 249 249 250 251 252 254 255
269 265 262 260 259 258 257 256 256 255 254 253 252 250 249 249 249 248 248 248 248 248 248 248 247 246 245 244 244 244 244 245 246 247 247 247 248 249 249 250 251 253 254
269 265 261 258 256 254 253 253 252 251 251 250 249 248 246 246 246 246 247 246 246 245 246 246 246 246 245 244 243 242 243 243 244 246 247 248 248 250 251 252 252 253 253
269 263 259 256 254 250 248 247 247 247 247 247 246 246 245 244 243 243 243 243 243 243 244 245 246 246 246 245 245 245 245 245 246 247 248 250 251 252 253 253 253 253 253
277 266 256 251 248 246 243 243 244 245 245 245 244 243 243 243 242 241 241 241 241 242 242 243 245 246 247 247 247 247 247 248 248 249 249 250 251 252 253 253 253 253 252
289 275 259 247 241 240 238 238 240 244 245 244 243 241 241 242 241 241 241 241 241 242 243 243 244 245 247 249 249 249 249 249 249 249 249 250 251 251 251 251 252 252 252
297 284 266 249 238 234 233 234 237 241 242 242 241 242 241 241 241 242 242 242 243 244 245 245 247 247 247 248 249 249 250 250 249 249 249 249 249 250 250 250 250 251 251
300 289 272 254 241 234 232 232 234 237 238 238 238 239 240 242 242 242 243 243 244 246 246 247 249 250 249 249 249 249 249 249 249 248 247 247 247 247 247 248 249 250 251
303 290 274 258 245 237 235 235 233 234 236 236 235 237 238 240 242 242 243 244 245 246 247 247 249 249 250 250 250 250 249 249 248 247 246 245 245 245 245 247 249 250 251
304 292 276 260 248 240 238 237 235 236 236 235 235 237 238 237 240 241 243 244 243 244 245 245 246 248 249 251 251 250 249 248 246 245 244 243 243 244 245 246 248 249 250
302 292 276 261 250 243 240 239 237 235 234 234 235 236 234 235 236 236 237 238 240 242 243 244 245 248 250 251 252 251 249 247 245 244 243 242 242 243 244 246 247 247 247
297 288 275 262 254 245 239 237 235 232 232 232 232 233 233 234 232 233 235 237 239 241 243 245 247 249 250 250 250 250 249 247 245 243 243 242 242 242 244 245 245 244 242
291 284 274 265 258 247 241 238 235 233 232 232 231 232 234 234 233 234 236 239 241 243 245 247 248 249 249 249 248 248 247 246 245 243 241 241 241 242 243 243 242 241 241
282 278 271 264 258 251 244 238 234 232 232 231 230 232 233 235 235 237 239 242 244 245 247 248 248 248 248 247 247 245 244 243 243 241 240 239 240 240 241 241 241 241 240
275 271 266 262 257 253 247 240 236 234 233 232 231 232 233 235 237 239 241 243 245 246 247 247 246 245 245 245 245 243 241 239 239 238 237 237 238 239 240 240 239 239 238
272 267 263 258 254 252 249 245 240 236 235 234 234 234 234 235 237 239 242 244 245 246 245 244 244 244 243 243 241 239 237 235 235 234 234 236 237 238 240 240 239 238 238